Showing default

GLOBALSTAR M080, 38041

Orbit data source: Space-Track

GLOBALSTAR M080, 38041 is a payload satellite owned by Globalstar (US) in LEO that was launched on Wed, 28 Dec 2011 UTC via a SOYUZ-2-1A launch vehicle from the Tyuratam Missile And Space Complex (TTMTR). Payload-class satellites include a variety of spacecraft equipped with specific instruments for various scientific and technological missions. These include communications satellites like Starlink; space stations such as the ISS; scientific satellites like the Hubble; Earth observation satellites from companies like Planet Labs, Umbra, and HawkEye 360; GPS; miniature CubeSats for education and research; and military/defense satellites.

Loading next visibility...
Identifier
38041, 2011-080B
Orbit
LEO
Country
Flag of UnknownUnknown / GLOB
Related business
Manufacturer
Thales Alenia
Mission
Operational Commercial Communications
Bus & Motor
PRISMA?, LS-400 AOCS?
Mass
715 kg wet, ~500 kg dry
Launch date (UTC)
2011-12-28 (14 years ago)
Launch vehicle
SOYUZ-2-1A
Launch site
Tyuratam Missile And Space Complex (TTMTR)
Object type
Payload
Rocket body
Debris
Shape & HBR
Trap Cyl + 2 Pan, 6.0 m
Radar Cross Section
20.931 m², Large (>1 m²)

Expand to show TLE details & history
Last TLE update: 22 hours ago

TLE from 22 hours ago
0 GLOBALSTAR M080
1 38041U 11080B   25261.10723417 -.00000089  00000-0  81945-4 0  9996
2 38041  52.0045 127.2174 0001082  54.4320 111.3958 12.62269032634528
Epoch: 2025-09-18T02:34Z
TLE epoch observation values (Epoch: 2025-09-18T02:34:25.032Z)
Latitude
11.10857°
Longitude
-97.43934°
Altitude
1,413.834 km
Speed
7.155 km/s
True Right ascension
19h 53m 45s
True Declination
11° 02' 57"
Sunlit
Object was in daylight at epoch
Visualization orbit readout
Latitude
Unknown
Longitude
Unknown
Altitude
Unknown
Speed
Unknown
Apparent Right ascension
Unknown
Apparent Declination
Unknown
Sunlit
N/A
Visualization observer readout
Local Sidereal Time
17:16:40
Azimuth
Unknown
Elevation
Unknown
Doppler factor
Unknown
Orbital elements
Apogee altitude
1,414.828 km
Perigee altitude
1,413.141 km
Semi-major axis
7,792.122 km
Eccentricity
0.00011
Inclination
52.0045°
RAAN
127.2174°
Arg. of periapsis
54.432°
True anomaly
111.40734°
Mean anomaly
111.3958°
Eccentric anomaly
111.40157°
Mean motion
3.15544 °/min
Orbital period
114.09 mins
BSTAR
0.000081945
Loading maneuver chart data...
Computing Atmospheric mass density...
Loading historical data...
Loading historical data...
Loading historical data...
Loading historical data...
Loading historical data...
Loading historical data...
Loading historical data...

Documentation

Showing up to 5 results
|